Regional Weather Roundup
Issued by NWS

Home | Current Version | Previous Version | Graphics & Text | Print | Product List | Glossary On
Versions: 1 2 3 4 5 6 7 8 9 10 11 12 13 14 15 16 17 18 19 20 21 22 23 24 25 26 27 28 29 30 31 32 33 34 35 36 37 38 39 40 41 42 43 44 45 46 47 48 49 50
000
ASUS43 KDTX 201301
RWRMI
MICHIGAN HOURLY REGIONAL WEATHER ROUNDUP
NATIONAL WEATHER SERVICE DETROIT/PONTIAC MI
800 AM EST MON FEB 20 2017

NOTE: "FAIR" INDICATES FEW OR NO CLOUDS BELOW 12,000 FEET WITH NO
SIGNIFICANT WEATHER AND/OR OBSTRUCTION TO VISIBILITY.

MIZ047>049-052>055-059>063-066>070-074>076-081>083-201400-
SOUTHEAST LOWER MICHIGAN

CITY           SKY/WX    TMP DP  RH WIND       PRES   REMARKS
ADRIAN         CLOUDY    36  32  85 E6        30.27R WCI  31
ALMA           MOCLDY    32  29  90 CALM      30.28R
ANN ARBOR      PTCLDY    33  30  88 N3        30.27R
BAD AXE        PTCLDY    32  31  96 E3        30.30R
CARO           CLOUDY    31  29  93 NE3       30.28R
DETROIT CITY   MOCLDY    34  31  88 NE5       30.29R WCI  30
DETROIT        CLOUDY    36  30  79 NE3       30.29R
FLINT          MOCLDY    32  27  81 E3        30.28R
GROSSE ILE     PTCLDY    34  31  90 NE6       30.28R WCI  29
HILLSDALE      CLOUDY    37  32  81 E6        30.22R WCI  33
HOWELL         PTCLDY    32  29  86 CALM      30.26R

CITY           SKY/WX    TMP DP  RH WIND       PRES   REMARKS
JACKSON        CLOUDY    36  30  79 SE5       30.24R WCI  32
LAMBERTVILLE   MOCLDY    38  32  81 CALM      30.26R
LANSING        CLOUDY    31  25  78 E7        30.26R WCI  24
LAPEER         FAIR      29  29  99 S3        30.27R
MASON          CLOUDY    37  32  81 CALM      30.24R
MONROE         PTCLDY    35  32  89 CALM      30.26R
MT. CLEMENS    CLOUDY    33  32  97 NE3       30.28R
PONTIAC        MOCLDY    30  26  85 NE3       30.26R
PORT HOPE        N/A     34  32  92 E10       30.29R WCI  26
PORT HURON     PTCLDY    30  30 100 CALM      30.30R
TRI CITIES     CLOUDY    32  30  92 CALM      30.29R
MIDLAND        FAIR      30  27  90 CALM      30.29R
TROY           PTCLDY    36  29  75 NE5       30.30R WCI  32
SAGINAW HB     PTCLDY    32  28  86 CALM      30.29R
$$
MIZ043>046-050>051-056>058-064>065-071>073-077>080-201400-
SOUTHWEST LOWER MICHIGAN

CITY           SKY/WX    TMP DP  RH WIND       PRES   REMARKS
BATTLE CREEK   PTCLDY    38  31  76 E3        30.21S
BENTON HARBOR  CLOUDY    44  28  53 SE8       30.18R
BIG RAPIDS     CLOUDY    29  27  90 CALM      30.24S
COLDWATER      PTCLDY    37  34  86 SE6       30.22R WCI  33
FREMONT        FAIR      37  29  74 E8        30.20F WCI  30
HOLLAND        CLOUDY    38  30  73 E6        30.19R WCI  33
GRAND RAPIDS   CLOUDY    36  30  79 E8        30.21S WCI  30
IONIA          FAIR      33  29  86 E7        30.23R WCI  27
KALAMAZOO      PTCLDY    35  27  72 CALM      30.21R
LUDINGTON      PTCLDY    37  32  81 E9        30.19R WCI  30
MARSHALL       PTCLDY    34  32  90 CALM      30.22R
MOUNT PLEASANT PTCLDY    32  29  89 CALM      30.28R
MUSKEGON       CLOUDY    39  31  72 E8        30.19S WCI  33
SOUTH HAVEN    CLOUDY    42  29  59 SE7       30.18R
$$
MIZ016>042-201400-
NORTHERN LOWER MICHIGAN

CITY           SKY/WX    TMP DP  RH WIND       PRES   REMARKS
ALPENA         PTCLDY    33  30  88 SE7       30.34R WCI  27
BEAVER ISLAND  PTCLDY    32  31  96 E5        30.26R WCI  27
BELLAIRE       PTCLDY    28  27  98 CALM      30.27R
CADILLAC       PTCLDY    32  28  83 E3        30.24R
CHARLEVOIX     PTCLDY    33  28  82 SE6       30.29R WCI  28
FRANKFORT      PTCLDY    40  31  71 SE7       30.20S WCI  35
GAYLORD        CLOUDY    31  26  82 SE7       30.25R WCI  24
GRAYLING       CLOUDY    28  26  93 E3        30.28R
HARBOR SPRINGS CLOUDY    32  29  88 E12       30.27R WCI  23
HOUGHTON LAKE  MOCLDY    28  26  92 E3        30.28R
MANISTEE       PTCLDY    34  30  85 E9        30.20R WCI  27
OSCODA           N/A     34  32  92 E7        30.32R WCI  28
PELLSTON       CLOUDY    25  22  88 CALM      30.29R
ROGERS CITY    MOCLDY    32  29  89 SE3       30.35R
TRAVERSE CITY  MOCLDY    33  28  81 CALM      30.24R
$$
MIZ007>008-015-201400-
EASTERN UPPER MICHIGAN

CITY           SKY/WX    TMP DP  RH WIND       PRES   REMARKS
KINROSS        CLOUDY    31  26  82 E15       30.31R WCI  20
MACKINAC ISLAN PTCLDY    33  33 100 E12G21    30.29R WCI  24
NEWBERRY       PTCLDY    32  29  90 SE12      30.26R WCI  23
S. S. MARIE    PTCLDY    30  25  81 E5        30.32R WCI  25
MUNISING         N/A     34  28  79 S8        30.21R WCI  27
$$
MIZ004>006-011>014-085-201400-
CENTRAL UPPER MICHIGAN

CITY           SKY/WX    TMP DP  RH WIND       PRES   REMARKS
MANISTIQUE     PTCLDY    32  32 100 E7        30.25R WCI  26
ESCANABA       CLOUDY    34  31  88 E7        30.20S WCI  28
MENOMINEE      PTCLDY    36  31  82 E8        30.17F WCI  30
SAWYER-GWINN   CLEAR     32  28  86 S10       30.17S WCI  24
$$
MIZ001>003-009>011-084-201400-
WESTERN UPPER MICHIGAN

CITY           SKY/WX    TMP DP  RH WIND       PRES   REMARKS
IRON MOUNTAIN  CLOUDY    34  27  75 SE8       30.13F WCI  27
HOUGHTON       CLOUDY    35  29  78 E13       30.07F WCI  26
COPPER HARBOR    N/A     36  30  79 SW17G31   30.10F WCI  26
IRONWOOD       CLOUDY    44  31  60 SE16G25   29.98S
$$

ABBREVIATIONS USED IN REMARKS
   TC - TEMPERATURE IN CELSIUS
  WCI - WIND CHILL INDEX
   HX - HEAT INDEX
  VSB - VISIBILITY




USA.gov is the U.S. government's official web portal to all federal, state and local government web resources and services.